Time,TemperatureF,DewpointF,PressureIn,WindDirection,WindDirectionDegrees,WindSpeedMPH,WindSpeedGustMPH,Humidity,HourlyPrecipIn,Conditions,Clouds,dailyrainin,SoftwareType,DateUTC
2013-04-19 00:00:00,57.9,57.3,29.55,SW,236,0.0,2.0,98,0.00,,---,0.00,VWS V14.01,2013-04-19 05:00:00,
2013-04-19 00:01:00,57.9,57.3,29.56,WSW,249,0.0,0.0,98,0.00,,---,0.00,VWS V14.01,2013-04-19 05:01:00,
2013-04-19 00:06:00,57.8,57.2,29.54,WSW,249,0.0,0.0,98,0.00,,---,0.00,VWS V14.01,2013-04-19 05:06:00,
2013-04-19 00:11:00,57.8,57.2,29.54,WSW,249,0.0,0.0,98,0.00,,---,0.00,VWS V14.01,2013-04-19 05:11:00,
2013-04-19 00:16:00,57.8,57.2,29.54,WSW,249,0.0,0.0,98,0.00,,---,0.00,VWS V14.01,2013-04-19 05:16:00,
2013-04-19 00:21:00,57.8,57.2,29.54,West,273,1.0,1.0,98,0.00,,---,0.00,VWS V14.01,2013-04-19 05:21:00,
2013-04-19 00:26:00,57.7,57.1,29.53,ENE,63,0.0,3.0,98,0.00,,---,0.00,VWS V14.01,2013-04-19 05:26:00,
2013-04-19 00:30:00,57.7,57.1,29.52,NE,49,1.0,3.0,98,0.00,,---,0.00,VWS V14.01,2013-04-19 05:30:00,
2013-04-19 00:31:00,57.8,57.2,29.53,SW,222,3.0,3.0,98,0.00,,---,0.00,VWS V14.01,2013-04-19 05:31:00,
2013-04-19 00:36:00,57.7,57.1,29.51,NE,53,1.0,3.0,98,0.00,,---,0.00,VWS V14.01,2013-04-19 05:36:00,
2013-04-19 00:41:00,57.7,57.1,29.51,South,186,0.0,3.0,98,0.00,,---,0.00,VWS V14.01,2013-04-19 05:41:00,
2013-04-19 00:46:00,57.7,57.1,29.52,SW,217,1.0,3.0,98,0.00,,---,0.00,VWS V14.01,2013-04-19 05:46:00,
2013-04-19 00:51:00,57.7,57.1,29.51,WSW,239,0.0,3.0,98,0.00,,---,0.00,VWS V14.01,2013-04-19 05:51:00,
2013-04-19 00:56:00,57.7,57.1,29.51,WSW,239,0.0,3.0,98,0.01,,---,0.01,VWS V14.01,2013-04-19 05:56:00,
2013-04-19 01:00:00,57.7,57.1,29.51,WSW,239,0.0,3.0,98,0.01,,---,0.01,VWS V14.01,2013-04-19 06:00:00,
2013-04-19 01:01:00,57.7,57.1,29.51,WSW,239,0.0,0.0,98,0.01,,---,0.01,VWS V14.01,2013-04-19 06:01:00,
2013-04-19 01:06:00,57.6,57.0,29.50,SW,232,1.0,1.0,98,0.02,,---,0.02,VWS V14.01,2013-04-19 06:06:00,
2013-04-19 01:11:00,57.7,57.4,29.49,ENE,69,3.0,3.0,99,0.02,,---,0.02,VWS V14.01,2013-04-19 06:11:00,
2013-04-19 01:16:00,57.6,57.3,29.48,West,278,0.0,4.0,99,0.02,,---,0.02,VWS V14.01,2013-04-19 06:16:00,
2013-04-19 01:21:00,57.7,57.4,29.48,ESE,110,1.0,4.0,99,0.02,,---,0.02,VWS V14.01,2013-04-19 06:21:00,
2013-04-19 01:26:00,57.7,57.4,29.48,WSW,249,1.0,4.0,99,0.02,,---,0.02,VWS V14.01,2013-04-19 06:26:00,
2013-04-19 01:30:00,57.7,57.4,29.48,ENE,77,2.0,4.0,99,0.02,,---,0.02,VWS V14.01,2013-04-19 06:30:00,
2013-04-19 01:31:00,57.6,57.3,29.47,ENE,76,0.0,2.0,99,0.02,,---,0.02,VWS V14.01,2013-04-19 06:31:00,
2013-04-19 01:36:00,57.7,57.4,29.46,ENE,73,1.0,2.0,99,0.02,,---,0.02,VWS V14.01,2013-04-19 06:36:00,
2013-04-19 01:41:00,57.7,57.4,29.46,ESE,104,1.0,2.0,99,0.02,,---,0.02,VWS V14.01,2013-04-19 06:41:00,
2013-04-19 01:46:00,57.8,57.5,29.45,ENE,71,1.0,5.0,99,0.02,,---,0.02,VWS V14.01,2013-04-19 06:46:00,
2013-04-19 01:51:00,57.8,57.5,29.45,SSE,157,0.0,5.0,99,0.03,,---,0.03,VWS V14.01,2013-04-19 06:51:00,
2013-04-19 01:56:00,57.8,57.5,29.44,SSE,157,0.0,5.0,99,0.03,,---,0.03,VWS V14.01,2013-04-19 06:56:00,
2013-04-19 02:00:00,57.8,57.5,29.44,SSE,156,0.0,5.0,99,0.03,,---,0.03,VWS V14.01,2013-04-19 07:00:00,
2013-04-19 02:01:00,57.8,57.5,29.44,SSE,156,0.0,0.0,99,0.02,,---,0.03,VWS V14.01,2013-04-19 07:01:00,
2013-04-19 02:06:00,57.8,57.5,29.43,SE,125,0.0,1.0,99,0.02,,---,0.03,VWS V14.01,2013-04-19 07:06:00,
2013-04-19 02:11:00,57.7,57.4,29.43,ESE,121,0.0,1.0,99,0.02,,---,0.03,VWS V14.01,2013-04-19 07:11:00,
2013-04-19 02:16:00,57.8,57.5,29.42,ENE,70,0.0,2.0,99,0.02,,---,0.03,VWS V14.01,2013-04-19 07:16:00,
2013-04-19 02:21:00,57.8,57.5,29.42,ENE,69,0.0,2.0,99,0.02,,---,0.03,VWS V14.01,2013-04-19 07:21:00,
2013-04-19 02:26:00,57.8,57.5,29.41,ESE,105,1.0,2.0,99,0.02,,---,0.03,VWS V14.01,2013-04-19 07:26:00,
2013-04-19 02:30:00,57.8,57.5,29.41,SE,139,0.0,3.0,99,0.02,,---,0.03,VWS V14.01,2013-04-19 07:30:00,
2013-04-19 02:31:00,57.9,57.6,29.41,SE,139,0.0,0.0,99,0.01,,---,0.03,VWS V14.01,2013-04-19 07:31:00,
2013-04-19 02:36:00,58.0,57.7,29.40,SE,139,0.0,2.0,99,0.01,,---,0.03,VWS V14.01,2013-04-19 07:36:00,
2013-04-19 02:41:00,58.2,57.9,29.40,SE,133,0.0,2.0,99,0.01,,---,0.03,VWS V14.01,2013-04-19 07:41:00,
2013-04-19 02:46:00,58.3,58.0,29.40,ESE,123,0.0,2.0,99,0.01,,---,0.03,VWS V14.01,2013-04-19 07:46:00,
2013-04-19 02:51:00,58.5,58.2,29.40,SW,219,1.0,3.0,99,0.01,,---,0.03,VWS V14.01,2013-04-19 07:51:00,
2013-04-19 02:56:00,58.7,58.4,29.40,ENE,68,0.0,3.0,99,0.01,,---,0.03,VWS V14.01,2013-04-19 07:56:00,
2013-04-19 03:00:00,58.7,58.4,29.39,SE,133,0.0,3.0,99,0.01,,---,0.03,VWS V14.01,2013-04-19 08:00:00,
2013-04-19 03:01:00,58.8,58.5,29.39,SE,133,0.0,0.0,99,0.00,,---,0.03,VWS V14.01,2013-04-19 08:01:00,
2013-04-19 03:06:00,59.0,58.7,29.39,SSE,161,1.0,3.0,99,0.01,,---,0.04,VWS V14.01,2013-04-19 08:06:00,
2013-04-19 03:11:00,59.1,58.8,29.38,SSE,160,0.0,3.0,99,0.01,,---,0.04,VWS V14.01,2013-04-19 08:11:00,
2013-04-19 03:16:00,59.2,58.6,29.38,SSE,160,0.0,3.0,98,0.01,,---,0.04,VWS V14.01,2013-04-19 08:16:00,
2013-04-19 03:21:00,59.3,58.7,29.38,SE,143,0.0,3.0,98,0.01,,---,0.04,VWS V14.01,2013-04-19 08:21:00,
2013-04-19 03:26:00,59.4,58.8,29.38,SSE,158,2.0,3.0,98,0.01,,---,0.04,VWS V14.01,2013-04-19 08:26:00,
2013-04-19 03:30:00,59.5,58.9,29.38,SSE,147,1.0,3.0,98,0.02,,---,0.05,VWS V14.01,2013-04-19 08:30:00,
2013-04-19 03:31:00,59.6,59.0,29.38,South,184,0.0,3.0,98,0.02,,---,0.05,VWS V14.01,2013-04-19 08:31:00,
2013-04-19 03:36:00,59.8,59.0,29.37,South,184,6.0,7.0,97,0.03,,---,0.06,VWS V14.01,2013-04-19 08:36:00,
2013-04-19 03:41:00,60.0,59.2,29.37,SW,226,2.0,7.0,97,0.04,,---,0.07,VWS V14.01,2013-04-19 08:41:00,
2013-04-19 03:46:00,60.3,59.2,29.37,East,92,1.0,7.0,96,0.05,,---,0.08,VWS V14.01,2013-04-19 08:46:00,
2013-04-19 03:51:00,60.7,59.3,29.36,SW,236,3.0,7.0,95,0.05,,---,0.08,VWS V14.01,2013-04-19 08:51:00,
2013-04-19 03:56:00,60.8,59.1,29.36,SSW,204,2.0,7.0,94,0.06,,---,0.09,VWS V14.01,2013-04-19 08:56:00,
2013-04-19 04:00:00,60.8,59.1,29.36,SSW,198,2.0,8.0,94,0.06,,---,0.09,VWS V14.01,2013-04-19 09:00:00,
2013-04-19 04:01:00,60.8,59.1,29.37,SSW,203,3.0,6.0,94,0.06,,---,0.09,VWS V14.01,2013-04-19 09:01:00,
2013-04-19 04:06:00,60.8,59.1,29.36,SW,236,4.0,7.0,94,0.06,,---,0.09,VWS V14.01,2013-04-19 09:06:00,
2013-04-19 04:11:00,60.7,59.0,29.36,SSW,207,4.0,7.0,94,0.06,,---,0.09,VWS V14.01,2013-04-19 09:11:00,
2013-04-19 04:16:00,60.5,58.8,29.36,SW,232,4.0,7.0,94,0.06,,---,0.09,VWS V14.01,2013-04-19 09:16:00,
2013-04-19 04:21:00,60.5,59.1,29.36,SW,226,3.0,8.0,95,0.06,,---,0.09,VWS V14.01,2013-04-19 09:21:00,
2013-04-19 04:26:00,60.3,58.9,29.36,SW,236,2.0,8.0,95,0.06,,---,0.09,VWS V14.01,2013-04-19 09:26:00,
2013-04-19 04:30:00,60.3,58.9,29.36,SW,233,4.0,8.0,95,0.06,,---,0.09,VWS V14.01,2013-04-19 09:30:00,
2013-04-19 04:31:00,60.2,58.8,29.38,West,259,6.0,8.0,95,0.04,,---,0.09,VWS V14.01,2013-04-19 09:31:00,
2013-04-19 04:36:00,58.7,56.1,29.39,West,280,8.0,16.0,91,0.04,,---,0.09,VWS V14.01,2013-04-19 09:36:00,
2013-04-19 04:41:00,57.2,55.2,29.39,WSW,246,6.0,16.0,93,0.05,,---,0.10,VWS V14.01,2013-04-19 09:41:00,
2013-04-19 04:46:00,56.2,54.5,29.40,West,267,6.0,16.0,94,0.05,,---,0.10,VWS V14.01,2013-04-19 09:46:00,
2013-04-19 04:51:00,54.7,52.7,29.39,West,276,9.0,17.0,93,0.05,,---,0.10,VWS V14.01,2013-04-19 09:51:00,
2013-04-19 04:56:00,53.3,51.0,29.38,SSW,211,5.0,18.0,92,0.05,,---,0.10,VWS V14.01,2013-04-19 09:56:00,
2013-04-19 05:00:00,52.7,50.5,29.37,West,263,8.0,18.0,92,0.05,,---,0.10,VWS V14.01,2013-04-19 10:00:00,
2013-04-19 05:01:00,52.0,49.8,29.40,West,259,7.0,15.0,92,0.01,,---,0.10,VWS V14.01,2013-04-19 10:01:00,
2013-04-19 05:06:00,51.2,49.2,29.40,WNW,288,11.0,16.0,93,0.01,,---,0.10,VWS V14.01,2013-04-19 10:06:00,
2013-04-19 05:11:00,50.2,48.0,29.39,West,262,9.0,19.0,92,0.01,,---,0.10,VWS V14.01,2013-04-19 10:11:00,
2013-04-19 05:16:00,49.5,47.3,29.40,West,280,5.0,19.0,92,0.01,,---,0.10,VWS V14.01,2013-04-19 10:16:00,
2013-04-19 05:21:00,49.2,47.3,29.41,West,269,8.0,19.0,93,0.01,,---,0.10,VWS V14.01,2013-04-19 10:21:00,
2013-04-19 05:26:00,48.9,47.2,29.42,West,259,5.0,19.0,94,0.01,,---,0.10,VWS V14.01,2013-04-19 10:26:00,
2013-04-19 05:30:00,48.7,47.0,29.42,West,274,8.0,19.0,94,0.01,,---,0.10,VWS V14.01,2013-04-19 10:30:00,
2013-04-19 05:31:00,48.6,47.0,29.43,SW,232,17.0,17.0,94,0.01,,---,0.10,VWS V14.01,2013-04-19 10:31:00,
2013-04-19 05:36:00,48.1,46.2,29.43,WSW,255,6.0,17.0,93,0.01,,---,0.10,VWS V14.01,2013-04-19 10:36:00,
2013-04-19 05:41:00,47.6,45.4,29.42,West,259,4.0,17.0,92,0.01,,---,0.10,VWS V14.01,2013-04-19 10:41:00,
2013-04-19 05:46:00,47.3,44.8,29.42,WSW,245,6.0,18.0,91,0.01,,---,0.10,VWS V14.01,2013-04-19 10:46:00,
2013-04-19 05:51:00,46.9,44.1,29.42,SW,214,6.0,18.0,90,0.01,,---,0.10,VWS V14.01,2013-04-19 10:51:00,
2013-04-19 05:56:00,46.5,43.4,29.43,West,272,7.0,18.0,89,0.01,,---,0.10,VWS V14.01,2013-04-19 10:56:00,
2013-04-19 06:00:00,46.3,43.5,29.42,West,276,11.0,18.0,90,0.02,,---,0.11,VWS V14.01,2013-04-19 11:00:00,
2013-04-19 06:01:00,46.0,43.5,29.43,West,274,10.0,16.0,91,0.01,,---,0.11,VWS V14.01,2013-04-19 11:01:00,
2013-04-19 06:06:00,45.6,43.4,29.43,WNW,290,6.0,16.0,92,0.02,,---,0.12,VWS V14.01,2013-04-19 11:06:00,
2013-04-19 06:11:00,45.3,43.1,29.44,WNW,284,10.0,16.0,92,0.02,,---,0.12,VWS V14.01,2013-04-19 11:11:00,
2013-04-19 06:16:00,45.2,43.3,29.45,WNW,290,7.0,16.0,93,0.02,,---,0.12,VWS V14.01,2013-04-19 11:16:00,
2013-04-19 06:21:00,45.0,42.8,29.44,WSW,240,4.0,16.0,92,0.02,,---,0.12,VWS V14.01,2013-04-19 11:21:00,
2013-04-19 06:26:00,44.8,42.9,29.45,WNW,293,7.0,16.0,93,0.03,,---,0.13,VWS V14.01,2013-04-19 11:26:00,
2013-04-19 06:30:00,44.8,42.9,29.45,West,269,6.0,16.0,93,0.03,,---,0.13,VWS V14.01,2013-04-19 11:30:00,
2013-04-19 06:31:00,44.7,43.1,29.46,West,267,7.0,12.0,94,0.03,,---,0.13,VWS V14.01,2013-04-19 11:31:00,
2013-04-19 06:36:00,44.2,42.3,29.46,West,270,5.0,13.0,93,0.03,,---,0.13,VWS V14.01,2013-04-19 11:36:00,
2013-04-19 06:41:00,43.7,41.8,29.47,West,266,2.0,14.0,93,0.04,,---,0.14,VWS V14.01,2013-04-19 11:41:00,
2013-04-19 06:46:00,43.3,41.7,29.47,WSW,240,4.0,14.0,94,0.04,,---,0.14,VWS V14.01,2013-04-19 11:46:00,
2013-04-19 06:51:00,43.0,41.4,29.48,West,272,8.0,17.0,94,0.04,,---,0.14,VWS V14.01,2013-04-19 11:51:00,
2013-04-19 06:56:00,42.7,41.4,29.48,West,281,7.0,17.0,95,0.04,,---,0.14,VWS V14.01,2013-04-19 11:56:00,
2013-04-19 07:00:00,42.7,41.4,29.48,WSW,239,5.0,17.0,95,0.04,,---,0.14,VWS V14.01,2013-04-19 12:00:00,
2013-04-19 07:01:00,42.5,41.2,29.48,WNW,284,2.0,15.0,95,0.03,,---,0.14,VWS V14.01,2013-04-19 12:01:00,
2013-04-19 07:06:00,42.3,41.0,29.48,WNW,284,8.0,15.0,95,0.03,,---,0.14,VWS V14.01,2013-04-19 12:06:00,
2013-04-19 07:11:00,42.0,40.4,29.48,WSW,243,5.0,16.0,94,0.03,,---,0.14,VWS V14.01,2013-04-19 12:11:00,
2013-04-19 07:16:00,41.7,39.5,29.49,West,266,9.0,16.0,92,0.03,,---,0.14,VWS V14.01,2013-04-19 12:16:00,
2013-04-19 07:21:00,41.5,39.3,29.49,WNW,294,9.0,16.0,92,0.03,,---,0.14,VWS V14.01,2013-04-19 12:21:00,
2013-04-19 07:26:00,41.4,39.2,29.49,West,276,5.0,16.0,92,0.03,,---,0.14,VWS V14.01,2013-04-19 12:26:00,
2013-04-19 07:30:00,41.4,39.3,29.50,WSW,239,4.0,16.0,92,0.03,,---,0.14,VWS V14.01,2013-04-19 12:30:00,
2013-04-19 07:31:00,41.4,39.0,29.49,WSW,250,6.0,13.0,91,0.01,,---,0.14,VWS V14.01,2013-04-19 12:31:00,
2013-04-19 07:36:00,41.3,38.9,29.50,West,262,11.0,14.0,91,0.01,,---,0.14,VWS V14.01,2013-04-19 12:36:00,
2013-04-19 07:41:00,41.3,38.6,29.50,WSW,238,6.0,18.0,90,0.01,,---,0.14,VWS V14.01,2013-04-19 12:41:00,
2013-04-19 07:46:00,41.2,38.2,29.50,WSW,239,5.0,18.0,89,0.01,,---,0.14,VWS V14.01,2013-04-19 12:46:00,
2013-04-19 07:51:00,41.2,38.5,29.50,WNW,287,6.0,18.0,90,0.01,,---,0.14,VWS V14.01,2013-04-19 12:51:00,
2013-04-19 07:56:00,41.1,38.1,29.51,West,276,8.0,18.0,89,0.01,,---,0.14,VWS V14.01,2013-04-19 12:56:00,
2013-04-19 08:00:00,41.0,38.0,29.51,WNW,287,5.0,18.0,89,0.01,,---,0.14,VWS V14.01,2013-04-19 13:00:00,
2013-04-19 08:01:00,40.9,37.9,29.51,West,276,11.0,17.0,89,0.00,,---,0.14,VWS V14.01,2013-04-19 13:01:00,
2013-04-19 08:06:00,40.7,37.7,29.51,West,281,6.0,22.0,89,0.00,,---,0.14,VWS V14.01,2013-04-19 13:06:00,
2013-04-19 08:11:00,40.5,37.5,29.51,West,259,6.0,22.0,89,0.00,,---,0.14,VWS V14.01,2013-04-19 13:11:00,
2013-04-19 08:16:00,40.4,37.4,29.51,West,262,6.0,22.0,89,0.00,,---,0.14,VWS V14.01,2013-04-19 13:16:00,
2013-04-19 08:21:00,40.4,37.7,29.51,WNW,297,10.0,22.0,90,0.00,,---,0.14,VWS V14.01,2013-04-19 13:21:00,
2013-04-19 08:26:00,40.4,37.7,29.52,SW,236,7.0,22.0,90,0.00,,---,0.14,VWS V14.01,2013-04-19 13:26:00,
2013-04-19 08:30:00,40.4,37.4,29.52,WSW,238,9.0,22.0,89,0.00,,---,0.14,VWS V14.01,2013-04-19 13:30:00,
2013-04-19 08:31:00,40.4,37.7,29.51,West,276,11.0,12.0,90,0.00,,---,0.14,VWS V14.01,2013-04-19 13:31:00,
2013-04-19 08:36:00,40.3,37.3,29.51,West,273,7.0,17.0,89,0.00,,---,0.14,VWS V14.01,2013-04-19 13:36:00,
2013-04-19 08:41:00,40.1,37.1,29.52,West,266,8.0,17.0,89,0.00,,---,0.14,VWS V14.01,2013-04-19 13:41:00,
2013-04-19 08:46:00,40.0,36.5,29.52,SW,236,2.0,22.0,87,0.00,,---,0.14,VWS V14.01,2013-04-19 13:46:00,
2013-04-19 08:51:00,40.1,36.8,29.52,West,281,21.0,22.0,88,0.00,,---,0.14,VWS V14.01,2013-04-19 13:51:00,
2013-04-19 08:56:00,40.1,35.4,29.53,West,278,8.0,22.0,83,0.00,,---,0.14,VWS V14.01,2013-04-19 13:56:00,
2013-04-19 09:00:00,40.0,35.3,29.52,West,269,13.0,22.0,83,0.00,,---,0.14,VWS V14.01,2013-04-19 14:00:00,
2013-04-19 09:01:00,40.0,35.3,29.52,West,262,5.0,14.0,83,0.00,,---,0.14,VWS V14.01,2013-04-19 14:01:00,
2013-04-19 09:06:00,39.9,35.2,29.53,West,268,11.0,19.0,83,0.00,,---,0.14,VWS V14.01,2013-04-19 14:06:00,
2013-04-19 09:11:00,39.5,34.8,29.53,WNW,285,8.0,20.0,83,0.00,,---,0.14,VWS V14.01,2013-04-19 14:11:00,
2013-04-19 09:16:00,39.4,34.7,29.53,West,263,8.0,20.0,83,0.00,,---,0.14,VWS V14.01,2013-04-19 14:16:00,
2013-04-19 09:21:00,39.6,35.2,29.54,WSW,242,7.0,20.0,84,0.00,,---,0.14,VWS V14.01,2013-04-19 14:21:00,
2013-04-19 09:26:00,39.7,35.0,29.54,SW,228,14.0,20.0,83,0.00,,---,0.14,VWS V14.01,2013-04-19 14:26:00,
2013-04-19 09:30:00,39.8,35.1,29.54,WSW,238,6.0,20.0,83,0.00,,---,0.14,VWS V14.01,2013-04-19 14:30:00,
2013-04-19 09:31:00,39.9,35.2,29.54,West,267,6.0,12.0,83,0.00,,---,0.14,VWS V14.01,2013-04-19 14:31:00,
2013-04-19 09:36:00,39.9,34.9,29.54,WSW,257,9.0,14.0,82,0.00,,---,0.14,VWS V14.01,2013-04-19 14:36:00,
2013-04-19 09:41:00,39.9,34.5,29.54,WSW,258,7.0,15.0,81,0.00,,---,0.14,VWS V14.01,2013-04-19 14:41:00,
2013-04-19 09:46:00,40.1,34.8,29.55,WSW,248,10.0,15.0,81,0.00,,---,0.14,VWS V14.01,2013-04-19 14:46:00,
2013-04-19 09:51:00,40.0,34.7,29.55,WSW,256,11.0,22.0,81,0.00,,---,0.14,VWS V14.01,2013-04-19 14:51:00,
2013-04-19 09:56:00,39.9,34.5,29.55,WSW,255,6.0,22.0,81,0.00,,---,0.14,VWS V14.01,2013-04-19 14:56:00,
2013-04-19 10:00:00,39.9,34.5,29.55,SW,236,6.0,22.0,81,0.00,,---,0.14,VWS V14.01,2013-04-19 15:00:00,
2013-04-19 10:01:00,39.9,34.9,29.56,West,259,11.0,14.0,82,0.00,,---,0.14,VWS V14.01,2013-04-19 15:01:00,
2013-04-19 10:06:00,39.7,34.7,29.56,West,280,8.0,15.0,82,0.00,,---,0.14,VWS V14.01,2013-04-19 15:06:00,
2013-04-19 10:11:00,39.8,34.1,29.57,West,262,8.0,16.0,80,0.00,,---,0.14,VWS V14.01,2013-04-19 15:11:00,
2013-04-19 10:16:00,39.8,33.8,29.58,West,274,14.0,18.0,79,0.00,,---,0.14,VWS V14.01,2013-04-19 15:16:00,
2013-04-19 10:21:00,39.9,33.6,29.58,WSW,256,7.0,22.0,78,0.00,,---,0.14,VWS V14.01,2013-04-19 15:21:00,
2013-04-19 10:26:00,39.9,33.6,29.59,West,273,3.0,22.0,78,0.00,,---,0.14,VWS V14.01,2013-04-19 15:26:00,
2013-04-19 10:30:00,39.9,33.6,29.59,SW,231,7.0,22.0,78,0.00,,---,0.14,VWS V14.01,2013-04-19 15:30:00,
2013-04-19 10:31:00,39.9,33.6,29.59,WSW,256,9.0,16.0,78,0.00,,---,0.14,VWS V14.01,2013-04-19 15:31:00,
2013-04-19 10:36:00,39.8,33.5,29.59,SW,220,12.0,28.0,78,0.00,,---,0.14,VWS V14.01,2013-04-19 15:36:00,
2013-04-19 10:41:00,39.7,33.4,29.59,WNW,284,7.0,28.0,78,0.00,,---,0.14,VWS V14.01,2013-04-19 15:41:00,
2013-04-19 10:45:00,39.8,33.2,29.59,West,273,6.0,28.0,77,0.00,,---,0.14,VWS V14.01,2013-04-19 15:45:00,
2013-04-19 10:50:00,39.9,33.3,29.59,West,276,11.0,28.0,77,0.00,,---,0.14,VWS V14.01,2013-04-19 15:50:00,
2013-04-19 10:55:00,39.9,33.3,29.59,West,272,9.0,28.0,77,0.00,,---,0.14,VWS V14.01,2013-04-19 15:55:00,
2013-04-19 11:00:00,40.1,33.5,29.59,WSW,240,7.0,19.0,77,0.00,,---,0.14,VWS V14.01,2013-04-19 16:00:00,
2013-04-19 11:05:00,40.4,33.8,29.60,West,270,10.0,22.0,77,0.00,,---,0.14,VWS V14.01,2013-04-19 16:05:00,
2013-04-19 11:10:00,40.3,33.3,29.59,WNW,300,3.0,22.0,76,0.00,,---,0.14,VWS V14.01,2013-04-19 16:10:00,
2013-04-19 11:15:00,40.1,33.2,29.59,WSW,246,6.0,22.0,76,0.00,,---,0.14,VWS V14.01,2013-04-19 16:15:00,
2013-04-19 11:20:00,40.0,33.4,29.59,WSW,249,6.0,22.0,77,0.00,,---,0.14,VWS V14.01,2013-04-19 16:20:00,
2013-04-19 11:25:00,40.0,33.4,29.60,WSW,255,7.0,22.0,77,0.00,,---,0.14,VWS V14.01,2013-04-19 16:25:00,
2013-04-19 11:30:00,40.1,33.2,29.59,WSW,244,10.0,18.0,76,0.00,,---,0.14,VWS V14.01,2013-04-19 16:30:00,
2013-04-19 11:35:00,40.3,33.3,29.60,SSW,210,10.0,18.0,76,0.00,,---,0.14,VWS V14.01,2013-04-19 16:35:00,
2013-04-19 11:40:00,40.4,33.1,29.60,NW,318,8.0,18.0,75,0.00,,---,0.14,VWS V14.01,2013-04-19 16:40:00,
2013-04-19 11:45:00,40.3,32.7,29.60,WSW,238,11.0,19.0,74,0.00,,---,0.14,VWS V14.01,2013-04-19 16:45:00,
2013-04-19 11:50:00,40.4,33.1,29.61,WSW,245,5.0,19.0,75,0.00,,---,0.14,VWS V14.01,2013-04-19 16:50:00,
2013-04-19 11:55:00,40.4,32.8,29.61,SW,233,6.0,19.0,74,0.00,,---,0.14,VWS V14.01,2013-04-19 16:55:00,
2013-04-19 12:00:00,40.6,33.0,29.61,SW,228,8.0,11.0,74,0.00,,---,0.14,VWS V14.01,2013-04-19 17:00:00,
2013-04-19 12:05:00,40.6,33.0,29.61,SSW,210,12.0,15.0,74,0.00,,---,0.14,VWS V14.01,2013-04-19 17:05:00,
2013-04-19 12:10:00,40.6,33.3,29.61,West,262,9.0,21.0,75,0.00,,---,0.14,VWS V14.01,2013-04-19 17:10:00,
2013-04-19 12:15:00,40.6,32.6,29.61,WSW,248,7.0,21.0,73,0.00,,---,0.14,VWS V14.01,2013-04-19 17:15:00,
2013-04-19 12:20:00,40.7,32.7,29.61,SW,217,14.0,21.0,73,0.00,,---,0.14,VWS V14.01,2013-04-19 17:20:00,
2013-04-19 12:25:00,40.6,33.0,29.61,West,262,6.0,21.0,74,0.00,,---,0.14,VWS V14.01,2013-04-19 17:25:00,
2013-04-19 12:30:00,40.8,33.2,29.61,WSW,256,6.0,22.0,74,0.00,,---,0.14,VWS V14.01,2013-04-19 17:30:00,
2013-04-19 12:35:00,40.8,33.2,29.61,WSW,238,5.0,22.0,74,0.00,,---,0.14,VWS V14.01,2013-04-19 17:35:00,
2013-04-19 12:40:00,40.7,32.7,29.61,SW,226,8.0,22.0,73,0.00,,---,0.14,VWS V14.01,2013-04-19 17:40:00,
2013-04-19 12:45:00,40.7,33.1,29.61,WSW,243,7.0,22.0,74,0.00,,---,0.14,VWS V14.01,2013-04-19 17:45:00,
2013-04-19 12:50:00,41.3,33.0,29.61,WNW,288,5.0,22.0,72,0.00,,---,0.14,VWS V14.01,2013-04-19 17:50:00,
2013-04-19 12:55:00,41.5,33.5,29.61,SW,231,11.0,22.0,73,0.00,,---,0.14,VWS V14.01,2013-04-19 17:55:00,
2013-04-19 13:00:00,41.5,33.2,29.61,SSW,210,7.0,14.0,72,0.00,,---,0.14,VWS V14.01,2013-04-19 18:00:00,
2013-04-19 13:05:00,41.3,33.0,29.61,SW,229,13.0,17.0,72,0.00,,---,0.14,VWS V14.01,2013-04-19 18:05:00,
2013-04-19 13:10:00,41.3,33.0,29.61,SW,231,7.0,21.0,72,0.00,,---,0.14,VWS V14.01,2013-04-19 18:10:00,
2013-04-19 13:15:00,41.3,33.0,29.61,SW,219,15.0,21.0,72,0.00,,---,0.14,VWS V14.01,2013-04-19 18:15:00,
2013-04-19 13:20:00,41.5,33.8,29.62,SSW,207,5.0,21.0,74,0.00,,---,0.14,VWS V14.01,2013-04-19 18:20:00,
2013-04-19 13:25:00,41.5,33.2,29.62,WSW,240,8.0,22.0,72,0.00,,---,0.14,VWS V14.01,2013-04-19 18:25:00,
2013-04-19 13:30:00,41.1,33.1,29.62,West,262,6.0,12.0,73,0.00,,---,0.14,VWS V14.01,2013-04-19 18:30:00,
2013-04-19 13:35:00,41.0,32.7,29.63,WSW,253,15.0,21.0,72,0.00,,---,0.14,VWS V14.01,2013-04-19 18:35:00,
2013-04-19 13:40:00,41.0,32.3,29.63,WSW,243,11.0,21.0,71,0.00,,---,0.14,VWS V14.01,2013-04-19 18:40:00,
2013-04-19 13:45:00,41.0,32.3,29.63,SW,224,11.0,21.0,71,0.00,,---,0.14,VWS V14.01,2013-04-19 18:45:00,
2013-04-19 13:50:00,41.3,32.6,29.64,West,264,11.0,21.0,71,0.00,,---,0.14,VWS V14.01,2013-04-19 18:50:00,
2013-04-19 13:55:00,41.7,32.7,29.64,West,259,4.0,21.0,70,0.00,,---,0.14,VWS V14.01,2013-04-19 18:55:00,
2013-04-19 14:00:00,41.9,32.1,29.64,WNW,285,13.0,19.0,68,0.00,,---,0.14,VWS V14.01,2013-04-19 19:00:00,
2013-04-19 14:05:00,41.8,32.8,29.65,SW,233,3.0,19.0,70,0.00,,---,0.14,VWS V14.01,2013-04-19 19:05:00,
2013-04-19 14:10:00,41.7,32.7,29.65,West,264,8.0,19.0,70,0.00,,---,0.14,VWS V14.01,2013-04-19 19:10:00,
2013-04-19 14:15:00,41.5,32.1,29.65,WSW,255,3.0,20.0,69,0.00,,---,0.14,VWS V14.01,2013-04-19 19:15:00,
2013-04-19 14:20:00,41.4,32.4,29.65,WNW,291,14.0,25.0,70,0.00,,---,0.14,VWS V14.01,2013-04-19 19:20:00,
2013-04-19 14:25:00,41.3,31.5,29.66,SW,233,11.0,26.0,68,0.00,,---,0.14,VWS V14.01,2013-04-19 19:25:00,
2013-04-19 14:30:00,41.5,32.5,29.65,West,270,2.0,12.0,70,0.00,,---,0.14,VWS V14.01,2013-04-19 19:30:00,
2013-04-19 14:35:00,42.1,32.7,29.66,West,270,5.0,17.0,69,0.00,,---,0.14,VWS V14.01,2013-04-19 19:35:00,
2013-04-19 14:40:00,42.2,32.4,29.65,SW,232,9.0,17.0,68,0.00,,---,0.14,VWS V14.01,2013-04-19 19:40:00,
2013-04-19 14:45:00,42.3,32.5,29.65,WSW,244,10.0,17.0,68,0.00,,---,0.14,VWS V14.01,2013-04-19 19:45:00,
2013-04-19 14:50:00,42.1,32.0,29.66,West,259,5.0,17.0,67,0.00,,---,0.14,VWS V14.01,2013-04-19 19:50:00,
2013-04-19 14:55:00,42.0,31.5,29.66,WSW,256,12.0,20.0,66,0.00,,---,0.14,VWS V14.01,2013-04-19 19:55:00,
2013-04-19 15:00:00,41.9,31.4,29.66,West,273,3.0,19.0,66,0.00,,---,0.14,VWS V14.01,2013-04-19 20:00:00,
2013-04-19 15:05:00,41.7,31.6,29.66,WSW,240,9.0,19.0,67,0.00,,---,0.14,VWS V14.01,2013-04-19 20:05:00,
2013-04-19 15:10:00,41.6,31.5,29.66,West,266,9.0,23.0,67,0.00,,---,0.14,VWS V14.01,2013-04-19 20:10:00,
2013-04-19 15:15:00,41.5,31.4,29.66,West,272,8.0,26.0,67,0.00,,---,0.14,VWS V14.01,2013-04-19 20:15:00,
2013-04-19 15:20:00,41.7,31.9,29.67,SW,226,9.0,26.0,68,0.00,,---,0.14,VWS V14.01,2013-04-19 20:20:00,
2013-04-19 15:25:00,41.7,31.6,29.67,West,276,13.0,26.0,67,0.00,,---,0.14,VWS V14.01,2013-04-19 20:25:00,
2013-04-19 15:30:00,41.9,32.5,29.67,SW,235,7.0,13.0,69,0.00,,---,0.14,VWS V14.01,2013-04-19 20:30:00,
2013-04-19 15:35:00,42.3,32.9,29.68,WSW,257,5.0,13.0,69,0.00,,---,0.14,VWS V14.01,2013-04-19 20:35:00,
2013-04-19 15:40:00,42.4,33.0,29.68,West,267,7.0,18.0,69,0.00,,---,0.14,VWS V14.01,2013-04-19 20:40:00,
2013-04-19 15:45:00,42.1,31.6,29.68,SW,236,15.0,20.0,66,0.00,,---,0.14,VWS V14.01,2013-04-19 20:45:00,
2013-04-19 15:50:00,41.8,32.0,29.68,West,266,18.0,24.0,68,0.00,,---,0.14,VWS V14.01,2013-04-19 20:50:00,
2013-04-19 15:55:00,41.7,31.9,29.68,SW,226,13.0,26.0,68,0.00,,---,0.14,VWS V14.01,2013-04-19 20:55:00,
2013-04-19 16:00:00,41.6,31.8,29.69,SW,229,8.0,16.0,68,0.00,,---,0.14,VWS V14.01,2013-04-19 21:00:00,
2013-04-19 16:05:00,41.2,31.8,29.69,West,273,4.0,21.0,69,0.00,,---,0.14,VWS V14.01,2013-04-19 21:05:00,
2013-04-19 16:10:00,40.9,32.2,29.70,WSW,256,9.0,21.0,71,0.00,,---,0.14,VWS V14.01,2013-04-19 21:10:00,
2013-04-19 16:15:00,40.8,32.1,29.70,WSW,248,8.0,21.0,71,0.00,,---,0.14,VWS V14.01,2013-04-19 21:15:00,
2013-04-19 16:20:00,40.9,32.2,29.71,WSW,250,6.0,16.0,71,0.00,,---,0.14,VWS V14.01,2013-04-19 21:20:00,
2013-04-19 16:25:00,41.0,32.0,29.71,SW,232,6.0,16.0,70,0.00,,---,0.14,VWS V14.01,2013-04-19 21:25:00,
2013-04-19 16:30:00,41.2,32.2,29.71,WSW,238,10.0,11.0,70,0.00,,---,0.14,VWS V14.01,2013-04-19 21:30:00,
2013-04-19 16:35:00,41.2,32.2,29.71,WSW,240,9.0,21.0,70,0.00,,---,0.14,VWS V14.01,2013-04-19 21:35:00,
2013-04-19 16:40:00,41.3,32.6,29.71,SSW,212,7.0,21.0,71,0.00,,---,0.14,VWS V14.01,2013-04-19 21:40:00,
2013-04-19 16:45:00,41.1,32.1,29.71,WSW,238,7.0,21.0,70,0.00,,---,0.14,VWS V14.01,2013-04-19 21:45:00,
2013-04-19 16:50:00,40.9,31.9,29.71,West,274,3.0,21.0,70,0.00,,---,0.14,VWS V14.01,2013-04-19 21:50:00,
2013-04-19 16:55:00,40.9,32.2,29.72,West,262,5.0,21.0,71,0.00,,---,0.14,VWS V14.01,2013-04-19 21:55:00,
2013-04-19 17:00:00,40.8,32.1,29.72,SW,221,6.0,10.0,71,0.00,,---,0.14,VWS V14.01,2013-04-19 22:00:00,
2013-04-19 17:05:00,40.6,33.0,29.73,WSW,246,6.0,10.0,74,0.00,,---,0.14,VWS V14.01,2013-04-19 22:05:00,
2013-04-19 17:10:00,40.3,33.0,29.73,WSW,238,9.0,11.0,75,0.00,,---,0.14,VWS V14.01,2013-04-19 22:10:00,
2013-04-19 17:15:00,40.0,32.7,29.73,SW,226,12.0,13.0,75,0.00,,---,0.14,VWS V14.01,2013-04-19 22:15:00,
2013-04-19 17:20:00,39.9,33.0,29.74,West,276,4.0,17.0,76,0.00,,---,0.14,VWS V14.01,2013-04-19 22:20:00,
2013-04-19 17:25:00,39.9,33.0,29.74,West,260,6.0,17.0,76,0.00,,---,0.14,VWS V14.01,2013-04-19 22:25:00,
2013-04-19 17:30:00,40.0,32.4,29.74,WNW,295,5.0,15.0,74,0.00,,---,0.14,VWS V14.01,2013-04-19 22:30:00,
2013-04-19 17:35:00,40.0,32.7,29.74,WSW,246,8.0,18.0,75,0.00,,---,0.14,VWS V14.01,2013-04-19 22:35:00,
2013-04-19 17:40:00,40.0,32.7,29.74,WSW,240,5.0,18.0,75,0.00,,---,0.14,VWS V14.01,2013-04-19 22:40:00,
2013-04-19 17:45:00,40.0,32.1,29.74,West,267,8.0,18.0,73,0.00,,---,0.14,VWS V14.01,2013-04-19 22:45:00,
2013-04-19 17:50:00,40.0,32.1,29.74,SW,229,9.0,18.0,73,0.00,,---,0.14,VWS V14.01,2013-04-19 22:50:00,
2013-04-19 17:55:00,39.9,32.0,29.75,WSW,258,9.0,18.0,73,0.00,,---,0.14,VWS V14.01,2013-04-19 22:55:00,
2013-04-19 18:00:00,39.9,32.3,29.75,WSW,256,4.0,13.0,74,0.00,,---,0.14,VWS V14.01,2013-04-19 23:00:00,
2013-04-19 18:05:00,39.9,32.6,29.75,WSW,240,9.0,13.0,75,0.00,,---,0.14,VWS V14.01,2013-04-19 23:05:00,
2013-04-19 18:10:00,39.9,32.3,29.75,SW,231,11.0,18.0,74,0.00,,---,0.14,VWS V14.01,2013-04-19 23:10:00,
2013-04-19 18:15:00,39.9,32.0,29.75,SW,217,5.0,18.0,73,0.00,,---,0.14,VWS V14.01,2013-04-19 23:15:00,
2013-04-19 18:20:00,39.9,32.0,29.76,SW,229,13.0,18.0,73,0.00,,---,0.14,VWS V14.01,2013-04-19 23:20:00,
2013-04-19 18:25:00,39.9,32.0,29.76,West,271,10.0,18.0,73,0.00,,---,0.14,VWS V14.01,2013-04-19 23:25:00,
2013-04-19 18:30:00,39.8,31.9,29.76,WSW,253,6.0,15.0,73,0.00,,---,0.14,VWS V14.01,2013-04-19 23:30:00,
2013-04-19 18:35:00,39.7,32.4,29.76,SW,229,3.0,15.0,75,0.00,,---,0.14,VWS V14.01,2013-04-19 23:35:00,
2013-04-19 18:40:00,39.7,32.1,29.76,West,266,5.0,15.0,74,0.00,,---,0.14,VWS V14.01,2013-04-19 23:40:00,
2013-04-19 18:45:00,39.6,32.3,29.76,West,264,4.0,15.0,75,0.00,,---,0.14,VWS V14.01,2013-04-19 23:45:00,
2013-04-19 18:50:00,39.6,32.7,29.77,WSW,250,6.0,15.0,76,0.00,,---,0.14,VWS V14.01,2013-04-19 23:50:00,
2013-04-19 18:55:00,39.5,32.6,29.77,WNW,284,4.0,15.0,76,0.00,,---,0.14,VWS V14.01,2013-04-19 23:55:00,
2013-04-19 19:00:00,39.3,32.7,29.77,WSW,256,2.0,10.0,77,0.00,,---,0.14,VWS V14.01,2013-04-20 00:00:00,
2013-04-19 19:05:00,39.3,32.7,29.78,SW,228,8.0,11.0,77,0.00,,---,0.14,VWS V14.01,2013-04-20 00:05:00,
2013-04-19 19:10:00,39.3,32.4,29.78,SSW,207,6.0,11.0,76,0.00,,---,0.14,VWS V14.01,2013-04-20 00:10:00,
2013-04-19 19:15:00,39.3,32.7,29.78,South,190,8.0,16.0,77,0.00,,---,0.14,VWS V14.01,2013-04-20 00:15:00,
2013-04-19 19:20:00,39.1,32.8,29.79,WSW,243,11.0,16.0,78,0.00,,---,0.14,VWS V14.01,2013-04-20 00:20:00,
2013-04-19 19:25:00,38.7,33.1,29.79,SW,214,4.0,16.0,80,0.00,,---,0.14,VWS V14.01,2013-04-20 00:25:00,
2013-04-19 19:30:00,38.4,33.4,29.79,WSW,248,7.0,13.0,82,0.00,,---,0.14,VWS V14.01,2013-04-20 00:30:00,
2013-04-19 19:35:00,38.1,33.4,29.80,SW,218,3.0,13.0,83,0.00,,---,0.14,VWS V14.01,2013-04-20 00:35:00,
2013-04-19 19:40:00,38.0,33.6,29.80,WNW,288,5.0,15.0,84,0.00,,---,0.14,VWS V14.01,2013-04-20 00:40:00,
2013-04-19 19:45:00,38.0,33.6,29.80,WSW,240,5.0,15.0,84,0.00,,---,0.14,VWS V14.01,2013-04-20 00:45:00,
2013-04-19 19:50:00,37.9,33.5,29.80,SW,231,7.0,15.0,84,0.00,,---,0.14,VWS V14.01,2013-04-20 00:50:00,
2013-04-19 19:55:00,37.9,33.5,29.80,SW,231,10.0,15.0,84,0.00,,---,0.14,VWS V14.01,2013-04-20 00:55:00,
2013-04-19 20:00:00,37.9,33.5,29.80,SSW,204,5.0,16.0,84,0.00,,---,0.14,VWS V14.01,2013-04-20 01:00:00,
2013-04-19 20:05:00,37.8,33.4,29.80,SW,217,8.0,16.0,84,0.00,,---,0.14,VWS V14.01,2013-04-20 01:05:00,
2013-04-19 20:10:00,37.8,33.1,29.81,SW,233,4.0,16.0,83,0.00,,---,0.14,VWS V14.01,2013-04-20 01:10:00,
2013-04-19 20:15:00,37.8,33.1,29.81,SSE,148,9.0,16.0,83,0.00,,---,0.14,VWS V14.01,2013-04-20 01:15:00,
2013-04-19 20:20:00,37.9,33.2,29.81,SSW,207,6.0,16.0,83,0.00,,---,0.14,VWS V14.01,2013-04-20 01:20:00,
2013-04-19 20:25:00,37.9,33.2,29.81,WSW,255,2.0,16.0,83,0.00,,---,0.14,VWS V14.01,2013-04-20 01:25:00,
2013-04-19 20:30:00,37.9,33.2,29.81,WSW,240,6.0,7.0,83,0.00,,---,0.14,VWS V14.01,2013-04-20 01:30:00,
2013-04-19 20:35:00,37.9,33.2,29.81,WSW,253,8.0,9.0,83,0.00,,---,0.14,VWS V14.01,2013-04-20 01:35:00,
2013-04-19 20:39:00,37.9,33.2,29.81,SW,222,7.0,23.0,83,0.00,,---,0.14,VWS V14.01,2013-04-20 01:39:00,
2013-04-19 20:44:00,38.0,33.0,29.81,WSW,249,4.0,23.0,82,0.00,,---,0.14,VWS V14.01,2013-04-20 01:44:00,
2013-04-19 20:49:00,38.0,33.0,29.81,SW,222,8.0,23.0,82,0.00,,---,0.14,VWS V14.01,2013-04-20 01:49:00,
2013-04-19 20:54:00,38.0,33.0,29.82,West,274,5.0,23.0,82,0.00,,---,0.14,VWS V14.01,2013-04-20 01:54:00,
2013-04-19 20:59:00,38.0,32.7,29.82,WSW,243,6.0,9.0,81,0.00,,---,0.14,VWS V14.01,2013-04-20 01:59:00,
2013-04-19 21:00:00,38.0,32.7,29.81,WSW,239,8.0,23.0,81,0.00,,---,0.14,VWS V14.01,2013-04-20 02:00:00,
2013-04-19 21:04:00,38.1,32.8,29.82,WSW,248,4.0,10.0,81,0.00,,---,0.14,VWS V14.01,2013-04-20 02:04:00,
2013-04-19 21:09:00,38.1,32.5,29.82,SW,235,8.0,12.0,80,0.00,,---,0.14,VWS V14.01,2013-04-20 02:09:00,
2013-04-19 21:14:00,38.1,32.5,29.82,WSW,248,3.0,12.0,80,0.00,,---,0.14,VWS V14.01,2013-04-20 02:14:00,
2013-04-19 21:19:00,38.0,32.4,29.82,SW,219,8.0,12.0,80,0.00,,---,0.14,VWS V14.01,2013-04-20 02:19:00,
2013-04-19 21:24:00,38.0,31.8,29.82,WSW,248,6.0,14.0,78,0.00,,---,0.14,VWS V14.01,2013-04-20 02:24:00,
2013-04-19 21:29:00,38.0,31.8,29.82,SW,228,12.0,12.0,78,0.00,,---,0.14,VWS V14.01,2013-04-20 02:29:00,
2013-04-19 21:30:00,38.0,32.1,29.82,NW,315,5.0,14.0,79,0.00,,---,0.14,VWS V14.01,2013-04-20 02:30:00,
2013-04-19 21:34:00,37.9,31.7,29.82,West,266,4.0,13.0,78,0.00,,---,0.14,VWS V14.01,2013-04-20 02:34:00,
2013-04-19 21:39:00,37.9,31.7,29.82,SSW,210,5.0,13.0,78,0.00,,---,0.14,VWS V14.01,2013-04-20 02:39:00,
2013-04-19 21:44:00,37.9,31.7,29.82,West,263,4.0,13.0,78,0.00,,---,0.14,VWS V14.01,2013-04-20 02:44:00,
2013-04-19 21:49:00,37.9,32.0,29.82,SW,221,4.0,16.0,79,0.00,,---,0.14,VWS V14.01,2013-04-20 02:49:00,
2013-04-19 21:54:00,37.8,31.6,29.82,WNW,287,4.0,16.0,78,0.00,,---,0.14,VWS V14.01,2013-04-20 02:54:00,
2013-04-19 21:59:00,37.8,31.6,29.82,WSW,246,6.0,10.0,78,0.00,,---,0.14,VWS V14.01,2013-04-20 02:59:00,
2013-04-19 22:00:00,37.8,31.6,29.82,WSW,243,10.0,16.0,78,0.00,,---,0.14,VWS V14.01,2013-04-20 03:00:00,
2013-04-19 22:04:00,37.7,31.1,29.82,SW,217,4.0,13.0,77,0.00,,---,0.14,VWS V14.01,2013-04-20 03:04:00,
2013-04-19 22:09:00,37.6,31.1,29.82,West,271,4.0,13.0,77,0.00,,---,0.14,VWS V14.01,2013-04-20 03:09:00,
2013-04-19 22:14:00,37.5,31.0,29.82,WSW,240,5.0,13.0,77,0.00,,---,0.14,VWS V14.01,2013-04-20 03:14:00,
2013-04-19 22:19:00,37.4,31.2,29.82,WSW,253,3.0,13.0,78,0.00,,---,0.14,VWS V14.01,2013-04-20 03:19:00,
2013-04-19 22:24:00,37.3,31.1,29.82,SW,219,2.0,14.0,78,0.00,,---,0.14,VWS V14.01,2013-04-20 03:24:00,
2013-04-19 22:29:00,37.2,31.0,29.82,West,262,1.0,6.0,78,0.00,,---,0.14,VWS V14.01,2013-04-20 03:29:00,
2013-04-19 22:30:00,37.3,31.1,29.82,WNW,299,1.0,14.0,78,0.00,,---,0.14,VWS V14.01,2013-04-20 03:30:00,
2013-04-19 22:34:00,37.1,30.9,29.82,WSW,239,4.0,9.0,78,0.00,,---,0.14,VWS V14.01,2013-04-20 03:34:00,
2013-04-19 22:39:00,37.0,30.8,29.82,WSW,256,5.0,9.0,78,0.00,,---,0.14,VWS V14.01,2013-04-20 03:39:00,
2013-04-19 22:44:00,37.0,30.5,29.82,West,267,5.0,13.0,77,0.00,,---,0.14,VWS V14.01,2013-04-20 03:44:00,
2013-04-19 22:49:00,36.9,30.7,29.82,WSW,249,2.0,13.0,78,0.00,,---,0.14,VWS V14.01,2013-04-20 03:49:00,
2013-04-19 22:54:00,36.8,30.6,29.82,SW,219,7.0,13.0,78,0.00,,---,0.14,VWS V14.01,2013-04-20 03:54:00,
2013-04-19 22:59:00,36.9,30.7,29.82,West,262,4.0,6.0,78,0.00,,---,0.00,VWS V14.01,2013-04-20 03:59:00,
2013-04-19 23:00:00,36.9,30.7,29.82,WSW,248,6.0,13.0,78,0.00,,---,0.14,VWS V14.01,2013-04-20 04:00:00,
2013-04-19 23:01:00,36.9,30.7,29.82,West,262,3.0,6.0,78,0.00,,---,0.00,VWS V14.01,2013-04-20 04:01:00,
2013-04-19 23:06:00,36.8,30.9,29.82,SW,233,8.0,12.0,79,0.00,,---,0.00,VWS V14.01,2013-04-20 04:06:00,
2013-04-19 23:11:00,36.9,31.0,29.83,WSW,248,5.0,13.0,79,0.00,,---,0.00,VWS V14.01,2013-04-20 04:11:00,
2013-04-19 23:16:00,36.9,31.0,29.83,SW,229,3.0,13.0,79,0.00,,---,0.00,VWS V14.01,2013-04-20 04:16:00,
2013-04-19 23:21:00,36.9,31.0,29.83,WSW,253,2.0,13.0,79,0.00,,---,0.00,VWS V14.01,2013-04-20 04:21:00,
2013-04-19 23:26:00,37.0,31.1,29.83,WSW,238,6.0,13.0,79,0.00,,---,0.00,VWS V14.01,2013-04-20 04:26:00,
2013-04-19 23:30:00,37.0,31.1,29.83,WNW,287,4.0,13.0,79,0.00,,---,0.00,VWS V14.01,2013-04-20 04:30:00,
2013-04-19 23:31:00,37.1,31.2,29.83,SW,229,8.0,8.0,79,0.00,,---,0.00,VWS V14.01,2013-04-20 04:31:00,
2013-04-19 23:36:00,37.2,31.3,29.83,WSW,252,6.0,11.0,79,0.00,,---,0.00,VWS V14.01,2013-04-20 04:36:00,
2013-04-19 23:41:00,37.2,31.0,29.83,SW,231,6.0,12.0,78,0.00,,---,0.00,VWS V14.01,2013-04-20 04:41:00,
2013-04-19 23:46:00,37.1,30.9,29.83,SW,233,3.0,12.0,78,0.00,,---,0.00,VWS V14.01,2013-04-20 04:46:00,
2013-04-19 23:51:00,37.1,31.2,29.84,SW,231,9.0,12.0,79,0.00,,---,0.00,VWS V14.01,2013-04-20 04:51:00,
2013-04-19 23:56:00,37.1,31.2,29.84,West,277,1.0,12.0,79,0.00,,---,0.00,VWS V14.01,2013-04-20 04:56:00,